Year,Month,Day,Hour,Minute,Value (Times are PST for temperature in C)
2014,07,03,00,00,17.00
2014,07,03,00,01,17.00
2014,07,03,00,02,17.00
2014,07,03,00,03,17.00
2014,07,03,00,04,17.00
2014,07,03,00,05,17.00
2014,07,03,00,06,16.90
2014,07,03,00,07,16.90
2014,07,03,00,08,16.80
2014,07,03,00,09,16.80
2014,07,03,00,10,16.70
2014,07,03,00,11,16.60
2014,07,03,00,12,16.60
2014,07,03,00,13,16.50
2014,07,03,00,14,16.50
2014,07,03,00,15,16.40
2014,07,03,00,16,16.40
2014,07,03,00,17,16.40
2014,07,03,00,18,16.40
2014,07,03,00,19,16.30
2014,07,03,00,20,16.30
2014,07,03,00,21,16.30
2014,07,03,00,22,16.30
2014,07,03,00,23,16.30
2014,07,03,00,24,16.30
2014,07,03,00,25,16.20
2014,07,03,00,26,16.20
2014,07,03,00,27,16.20
2014,07,03,00,28,16.20
2014,07,03,00,29,16.20
2014,07,03,00,30,16.10
2014,07,03,00,31,16.10
2014,07,03,00,32,16.10
2014,07,03,00,33,16.10
2014,07,03,00,34,16.10
2014,07,03,00,35,16.00
2014,07,03,00,36,16.00
2014,07,03,00,37,15.90
2014,07,03,00,38,15.90
2014,07,03,00,39,15.90
2014,07,03,00,40,15.90
2014,07,03,00,41,15.80
2014,07,03,00,42,15.80
2014,07,03,00,43,15.80
2014,07,03,00,44,15.70
2014,07,03,00,45,15.70
2014,07,03,00,46,15.70
2014,07,03,00,47,15.70
2014,07,03,00,48,15.70
2014,07,03,00,49,15.70
2014,07,03,00,50,15.70
2014,07,03,00,51,15.70
2014,07,03,00,52,15.70
2014,07,03,00,53,15.70
2014,07,03,00,54,15.70
2014,07,03,00,55,15.70
2014,07,03,00,56,15.70
2014,07,03,00,57,15.70
2014,07,03,00,58,15.70
2014,07,03,00,59,15.80
2014,07,03,01,00,15.80
2014,07,03,01,01,15.80
2014,07,03,01,02,15.80
2014,07,03,01,03,15.80
2014,07,03,01,04,15.80
2014,07,03,01,05,15.80
2014,07,03,01,06,15.80
2014,07,03,01,07,15.70
2014,07,03,01,08,15.70
2014,07,03,01,09,15.70
2014,07,03,01,10,15.70
2014,07,03,01,11,15.70
2014,07,03,01,12,15.60
2014,07,03,01,13,15.50
2014,07,03,01,14,15.50
2014,07,03,01,15,15.40
2014,07,03,01,16,15.30
2014,07,03,01,17,15.20
2014,07,03,01,18,15.20
2014,07,03,01,19,15.10
2014,07,03,01,20,15.00
2014,07,03,01,21,15.00
2014,07,03,01,22,15.00
2014,07,03,01,23,15.00
2014,07,03,01,24,15.00
2014,07,03,01,25,14.90
2014,07,03,01,26,14.80
2014,07,03,01,27,14.80
2014,07,03,01,28,14.80
2014,07,03,01,29,14.70
2014,07,03,01,30,14.70
2014,07,03,01,31,14.70
2014,07,03,01,32,14.70
2014,07,03,01,33,14.60
2014,07,03,01,34,14.60
2014,07,03,01,35,14.60
2014,07,03,01,36,14.60
2014,07,03,01,37,14.60
2014,07,03,01,38,14.50
2014,07,03,01,39,14.50
2014,07,03,01,40,14.40
2014,07,03,01,41,14.40
2014,07,03,01,42,14.40
2014,07,03,01,43,14.30
2014,07,03,01,44,14.30
2014,07,03,01,45,14.30
2014,07,03,01,46,14.30
2014,07,03,01,47,14.30
2014,07,03,01,48,14.30
2014,07,03,01,49,14.40
2014,07,03,01,50,14.40
2014,07,03,01,51,14.40
2014,07,03,01,52,14.40
2014,07,03,01,53,14.40
2014,07,03,01,54,14.40
2014,07,03,01,55,14.40
2014,07,03,01,56,14.40
2014,07,03,01,57,14.40
2014,07,03,01,58,14.40
2014,07,03,01,59,14.40
2014,07,03,02,00,14.40
2014,07,03,02,01,14.40
2014,07,03,02,02,14.40
2014,07,03,02,03,14.40
2014,07,03,02,04,14.40
2014,07,03,02,05,14.40
2014,07,03,02,06,14.40
2014,07,03,02,07,14.40
2014,07,03,02,08,14.30
2014,07,03,02,09,14.30
2014,07,03,02,10,14.30
2014,07,03,02,11,14.20
2014,07,03,02,12,14.20
2014,07,03,02,13,14.10
2014,07,03,02,14,14.00
2014,07,03,02,15,13.90
2014,07,03,02,16,13.80
2014,07,03,02,17,13.80
2014,07,03,02,18,13.70
2014,07,03,02,19,13.70
2014,07,03,02,20,13.60
2014,07,03,02,21,13.60
2014,07,03,02,22,13.50
2014,07,03,02,23,13.50
2014,07,03,02,24,13.50
2014,07,03,02,25,13.50
2014,07,03,02,26,13.40
2014,07,03,02,27,13.40
2014,07,03,02,28,13.40
2014,07,03,02,29,13.40
2014,07,03,02,30,13.40
2014,07,03,02,31,13.40
2014,07,03,02,32,13.40
2014,07,03,02,33,13.30
2014,07,03,02,34,13.30
2014,07,03,02,35,13.30
2014,07,03,02,36,13.30
2014,07,03,02,37,13.30
2014,07,03,02,38,13.30
2014,07,03,02,39,13.30
2014,07,03,02,40,13.30
2014,07,03,02,41,13.20
2014,07,03,02,42,13.20
2014,07,03,02,43,13.20
2014,07,03,02,44,13.10
2014,07,03,02,45,13.10
2014,07,03,02,46,13.10
2014,07,03,02,47,13.10
2014,07,03,02,48,13.00
2014,07,03,02,49,13.00
2014,07,03,02,50,13.00
2014,07,03,02,51,13.00
2014,07,03,02,52,12.90
2014,07,03,02,53,12.90
2014,07,03,02,54,12.80
2014,07,03,02,55,12.80
2014,07,03,02,56,12.80
2014,07,03,02,57,12.70
2014,07,03,02,58,12.70
2014,07,03,02,59,12.70
2014,07,03,03,00,12.70
2014,07,03,03,01,12.70
2014,07,03,03,02,12.60
2014,07,03,03,03,12.60
2014,07,03,03,04,12.60
2014,07,03,03,05,12.60
2014,07,03,03,06,12.60
2014,07,03,03,07,12.60
2014,07,03,03,08,12.60
2014,07,03,03,09,12.50
2014,07,03,03,10,12.50
2014,07,03,03,11,12.50
2014,07,03,03,12,12.50
2014,07,03,03,13,12.40
2014,07,03,03,14,12.40
2014,07,03,03,15,12.40
2014,07,03,03,16,12.40
2014,07,03,03,17,12.40
2014,07,03,03,18,12.40
2014,07,03,03,19,12.40
2014,07,03,03,20,12.40
2014,07,03,03,21,12.40
2014,07,03,03,22,12.30
2014,07,03,03,23,12.30
2014,07,03,03,24,12.30
2014,07,03,03,25,12.30
2014,07,03,03,26,12.30
2014,07,03,03,27,12.30
2014,07,03,03,28,12.30
2014,07,03,03,29,12.30
2014,07,03,03,30,12.20
2014,07,03,03,31,12.20
2014,07,03,03,32,12.20
2014,07,03,03,33,12.20
2014,07,03,03,34,12.20
2014,07,03,03,35,12.10
2014,07,03,03,36,12.10
2014,07,03,03,37,12.10
2014,07,03,03,38,12.10
2014,07,03,03,39,12.10
2014,07,03,03,40,12.10
2014,07,03,03,41,12.10
2014,07,03,03,42,12.10
2014,07,03,03,43,12.10
2014,07,03,03,44,12.10
2014,07,03,03,45,12.20
2014,07,03,03,46,12.20
2014,07,03,03,47,12.20
2014,07,03,03,48,12.30
2014,07,03,03,49,12.30
2014,07,03,03,50,12.30
2014,07,03,03,51,12.40
2014,07,03,03,52,12.40
2014,07,03,03,53,12.40
2014,07,03,03,54,12.40
2014,07,03,03,55,12.40
2014,07,03,03,56,12.40
2014,07,03,03,57,12.40
2014,07,03,03,58,12.40
2014,07,03,03,59,12.40
2014,07,03,04,00,12.40
2014,07,03,04,01,12.40
2014,07,03,04,02,12.40
2014,07,03,04,03,12.40
2014,07,03,04,04,12.40
2014,07,03,04,05,12.40
2014,07,03,04,06,12.40
2014,07,03,04,07,12.50
2014,07,03,04,08,12.60
2014,07,03,04,09,12.60
2014,07,03,04,10,12.70
2014,07,03,04,11,12.70
2014,07,03,04,12,12.80
2014,07,03,04,13,12.80
2014,07,03,04,14,12.90
2014,07,03,04,15,12.90
2014,07,03,04,16,12.90
2014,07,03,04,17,12.90
2014,07,03,04,18,12.90
2014,07,03,04,19,13.00
2014,07,03,04,20,13.00
2014,07,03,04,21,13.00
2014,07,03,04,22,13.00
2014,07,03,04,23,13.00
2014,07,03,04,24,12.90
2014,07,03,04,25,12.90
2014,07,03,04,26,12.90
2014,07,03,04,27,12.90
2014,07,03,04,28,12.90
2014,07,03,04,29,12.80
2014,07,03,04,30,12.80
2014,07,03,04,31,12.80
2014,07,03,04,32,12.80
2014,07,03,04,33,12.80
2014,07,03,04,34,12.80
2014,07,03,04,35,12.80
2014,07,03,04,36,12.80
2014,07,03,04,37,12.80
2014,07,03,04,38,12.70
2014,07,03,04,39,12.70
2014,07,03,04,40,12.70
2014,07,03,04,41,12.70
2014,07,03,04,42,12.70
2014,07,03,04,43,12.60
2014,07,03,04,44,12.60
2014,07,03,04,45,12.50
2014,07,03,04,46,12.50
2014,07,03,04,47,12.40
2014,07,03,04,48,12.40
2014,07,03,04,49,12.40
2014,07,03,04,50,12.30
2014,07,03,04,51,12.30
2014,07,03,04,52,12.30
2014,07,03,04,53,12.30
2014,07,03,04,54,12.30
2014,07,03,04,55,12.30
2014,07,03,04,56,12.30
2014,07,03,04,57,12.30
2014,07,03,04,58,12.30
2014,07,03,04,59,12.30
2014,07,03,05,00,12.30
2014,07,03,05,01,12.30
2014,07,03,05,02,12.30
2014,07,03,05,03,12.20
2014,07,03,05,04,12.20
2014,07,03,05,05,12.20
2014,07,03,05,06,12.20
2014,07,03,05,07,12.20
2014,07,03,05,08,12.20
2014,07,03,05,09,12.10
2014,07,03,05,10,12.10
2014,07,03,05,11,12.00
2014,07,03,05,12,12.00
2014,07,03,05,13,11.90
2014,07,03,05,14,11.90
2014,07,03,05,15,11.80
2014,07,03,05,16,11.80
2014,07,03,05,17,11.70
2014,07,03,05,18,11.70
2014,07,03,05,19,11.70
2014,07,03,05,20,11.70
2014,07,03,05,21,11.70
2014,07,03,05,22,11.70
2014,07,03,05,23,11.70
2014,07,03,05,24,11.70
2014,07,03,05,25,11.70
2014,07,03,05,26,11.70
2014,07,03,05,27,11.70
2014,07,03,05,28,11.70
2014,07,03,05,29,11.70
2014,07,03,05,30,11.70
2014,07,03,05,31,11.70
2014,07,03,05,32,11.60
2014,07,03,05,33,11.60
2014,07,03,05,34,11.60
2014,07,03,05,35,11.60
2014,07,03,05,36,11.60
2014,07,03,05,37,11.60
2014,07,03,05,38,11.60
2014,07,03,05,39,11.60
2014,07,03,05,40,11.50
2014,07,03,05,41,11.50
2014,07,03,05,42,11.50
2014,07,03,05,43,11.50
2014,07,03,05,44,11.50
2014,07,03,05,45,11.50
2014,07,03,05,46,11.40
2014,07,03,05,47,11.40
2014,07,03,05,48,11.40
2014,07,03,05,49,11.40
2014,07,03,05,50,11.40
2014,07,03,05,51,11.40
2014,07,03,05,52,11.40
2014,07,03,05,53,11.50
2014,07,03,05,54,11.50
2014,07,03,05,55,11.60
2014,07,03,05,56,11.60
2014,07,03,05,57,11.60
2014,07,03,05,58,11.60
2014,07,03,05,59,11.70
2014,07,03,06,00,11.70
2014,07,03,06,01,11.70
2014,07,03,06,02,11.70
2014,07,03,06,03,11.80
2014,07,03,06,04,11.80
2014,07,03,06,05,11.80
2014,07,03,06,06,11.90
2014,07,03,06,07,11.90
2014,07,03,06,08,11.90
2014,07,03,06,09,12.00
2014,07,03,06,10,12.00
2014,07,03,06,11,12.10
2014,07,03,06,12,12.10
2014,07,03,06,13,12.10
2014,07,03,06,14,12.10
2014,07,03,06,15,12.10
2014,07,03,06,16,12.10
2014,07,03,06,17,12.10
2014,07,03,06,18,12.10
2014,07,03,06,19,12.10
2014,07,03,06,20,12.10
2014,07,03,06,21,12.10
2014,07,03,06,22,12.10
2014,07,03,06,23,12.20
2014,07,03,06,24,12.20
2014,07,03,06,25,12.20
2014,07,03,06,26,12.30
2014,07,03,06,27,12.30
2014,07,03,06,28,12.40
2014,07,03,06,29,12.40
2014,07,03,06,30,12.50
2014,07,03,06,31,12.60
2014,07,03,06,32,12.70
2014,07,03,06,33,12.80
2014,07,03,06,34,12.80
2014,07,03,06,35,12.90
2014,07,03,06,36,13.00
2014,07,03,06,37,13.20
2014,07,03,06,38,13.30
2014,07,03,06,39,13.40
2014,07,03,06,40,13.60
2014,07,03,06,41,13.70
2014,07,03,06,42,13.80
2014,07,03,06,43,13.90
2014,07,03,06,44,14.00
2014,07,03,06,45,14.10
2014,07,03,06,46,14.20
2014,07,03,06,47,14.30
2014,07,03,06,48,14.40
2014,07,03,06,49,14.50
2014,07,03,06,50,14.60
2014,07,03,06,51,14.70
2014,07,03,06,52,14.80
2014,07,03,06,53,14.90
2014,07,03,06,54,15.00
2014,07,03,06,55,15.00
2014,07,03,06,56,15.00
2014,07,03,06,57,15.10
2014,07,03,06,58,15.20
2014,07,03,06,59,15.30
2014,07,03,07,00,15.40
2014,07,03,07,01,15.50
2014,07,03,07,02,15.50
2014,07,03,07,03,15.60
2014,07,03,07,04,15.60
2014,07,03,07,05,15.60
2014,07,03,07,06,15.60
2014,07,03,07,07,15.60
2014,07,03,07,08,15.60
2014,07,03,07,09,15.60
2014,07,03,07,10,15.60
2014,07,03,07,11,15.60
2014,07,03,07,12,15.60
2014,07,03,07,13,15.60
2014,07,03,07,14,15.50
2014,07,03,07,15,15.50
2014,07,03,07,16,15.50
2014,07,03,07,17,15.50
2014,07,03,07,18,15.50
2014,07,03,07,19,15.50
2014,07,03,07,20,15.40
2014,07,03,07,21,15.40
2014,07,03,07,22,15.40
2014,07,03,07,23,15.40
2014,07,03,07,24,15.40
2014,07,03,07,25,15.40
2014,07,03,07,26,15.40
2014,07,03,07,27,15.40
2014,07,03,07,28,15.40
2014,07,03,07,29,15.50
2014,07,03,07,30,15.50
2014,07,03,07,31,15.50
2014,07,03,07,32,15.60
2014,07,03,07,33,15.60
2014,07,03,07,34,15.60
2014,07,03,07,35,15.60
2014,07,03,07,36,15.60
2014,07,03,07,37,15.60
2014,07,03,07,38,15.60
2014,07,03,07,39,15.70
2014,07,03,07,40,15.70
2014,07,03,07,41,15.70
2014,07,03,07,42,15.70
2014,07,03,07,43,15.80
2014,07,03,07,44,15.80
2014,07,03,07,45,15.80
2014,07,03,07,46,15.80
2014,07,03,07,47,15.90
2014,07,03,07,48,15.90
2014,07,03,07,49,15.90
2014,07,03,07,50,15.90
2014,07,03,07,51,15.90
2014,07,03,07,52,15.90
2014,07,03,07,53,15.90
2014,07,03,07,54,15.80
2014,07,03,07,55,15.90
2014,07,03,07,56,15.90
2014,07,03,07,57,15.90
2014,07,03,07,58,15.90
2014,07,03,07,59,16.00
2014,07,03,08,00,16.00
2014,07,03,08,01,16.10
2014,07,03,08,02,16.10
2014,07,03,08,03,16.10
2014,07,03,08,04,16.20
2014,07,03,08,05,16.20
2014,07,03,08,06,16.20
2014,07,03,08,07,16.30
2014,07,03,08,08,16.30
2014,07,03,08,09,16.30
2014,07,03,08,10,16.30
2014,07,03,08,11,16.40
2014,07,03,08,12,16.40
2014,07,03,08,13,16.50
2014,07,03,08,14,16.60
2014,07,03,08,15,16.70
2014,07,03,08,16,16.80
2014,07,03,08,17,16.80
2014,07,03,08,18,16.80
2014,07,03,08,19,16.80
2014,07,03,08,20,16.80
2014,07,03,08,21,16.80
2014,07,03,08,22,16.90
2014,07,03,08,23,16.90
2014,07,03,08,24,16.90
2014,07,03,08,25,16.90
2014,07,03,08,26,17.00
2014,07,03,08,27,17.00
2014,07,03,08,28,17.10
2014,07,03,08,29,17.10
2014,07,03,08,30,17.20
2014,07,03,08,31,17.30
2014,07,03,08,32,17.40
2014,07,03,08,33,17.50
2014,07,03,08,34,17.60
2014,07,03,08,35,17.70
2014,07,03,08,36,17.80
2014,07,03,08,37,17.80
2014,07,03,08,38,17.80
2014,07,03,08,39,17.80
2014,07,03,08,40,17.80
2014,07,03,08,41,17.80
2014,07,03,08,42,17.80
2014,07,03,08,43,17.70
2014,07,03,08,44,17.70
2014,07,03,08,45,17.60
2014,07,03,08,46,17.50
2014,07,03,08,47,17.40
2014,07,03,08,48,17.40
2014,07,03,08,49,17.40
2014,07,03,08,50,17.40
2014,07,03,08,51,17.40
2014,07,03,08,52,17.40
2014,07,03,08,53,17.30
2014,07,03,08,54,17.30
2014,07,03,08,55,17.30
2014,07,03,08,56,17.30
2014,07,03,08,57,17.40
2014,07,03,08,58,17.40
2014,07,03,08,59,17.40
2014,07,03,09,00,17.40
2014,07,03,09,01,17.30
2014,07,03,09,02,17.30
2014,07,03,09,03,17.30
2014,07,03,09,04,17.30
2014,07,03,09,05,17.30
2014,07,03,09,06,17.20
2014,07,03,09,07,17.20
2014,07,03,09,08,17.10
2014,07,03,09,09,17.10
2014,07,03,09,10,17.20
2014,07,03,09,11,17.20
2014,07,03,09,12,17.30
2014,07,03,09,13,17.30
2014,07,03,09,14,17.40
2014,07,03,09,15,17.40
2014,07,03,09,16,17.40
2014,07,03,09,17,17.40
2014,07,03,09,18,17.40
2014,07,03,09,19,17.40
2014,07,03,09,20,17.40
2014,07,03,09,21,17.40
2014,07,03,09,22,17.40
2014,07,03,09,23,17.40
2014,07,03,09,24,17.40
2014,07,03,09,25,17.40
2014,07,03,09,26,17.30
2014,07,03,09,27,17.40
2014,07,03,09,28,17.40
2014,07,03,09,29,17.40
2014,07,03,09,30,17.30
2014,07,03,09,31,17.30
2014,07,03,09,32,17.20
2014,07,03,09,33,17.10
2014,07,03,09,34,17.10
2014,07,03,09,35,17.00
2014,07,03,09,36,17.00
2014,07,03,09,37,16.90
2014,07,03,09,38,16.90
2014,07,03,09,39,17.00
2014,07,03,09,40,17.00
2014,07,03,09,41,17.10
2014,07,03,09,42,17.10
2014,07,03,09,43,17.00
2014,07,03,09,44,17.00
2014,07,03,09,45,17.00
2014,07,03,09,46,17.00
2014,07,03,09,47,17.00
2014,07,03,09,48,16.90
2014,07,03,09,49,16.90
2014,07,03,09,50,16.90
2014,07,03,09,51,16.90
2014,07,03,09,52,16.90
2014,07,03,09,53,17.00
2014,07,03,09,54,17.00
2014,07,03,09,55,17.10
2014,07,03,09,56,17.10
2014,07,03,09,57,17.10
2014,07,03,09,58,17.10
2014,07,03,09,59,17.10
2014,07,03,10,00,17.00
2014,07,03,10,01,17.00
2014,07,03,10,02,17.00
2014,07,03,10,03,17.10
2014,07,03,10,04,17.10
2014,07,03,10,05,17.10
2014,07,03,10,06,17.10
2014,07,03,10,07,17.10
2014,07,03,10,08,17.10
2014,07,03,10,09,17.10
2014,07,03,10,10,17.10
2014,07,03,10,11,17.10
2014,07,03,10,12,17.10
2014,07,03,10,13,17.10
2014,07,03,10,14,17.10
2014,07,03,10,15,17.00
2014,07,03,10,16,17.10
2014,07,03,10,17,17.10
2014,07,03,10,18,17.00
2014,07,03,10,19,17.00
2014,07,03,10,20,17.00
2014,07,03,10,21,16.90
2014,07,03,10,22,16.90
2014,07,03,10,23,16.90
2014,07,03,10,24,17.00
2014,07,03,10,25,17.00
2014,07,03,10,26,17.00
2014,07,03,10,27,17.00
2014,07,03,10,28,16.90
2014,07,03,10,29,16.90
2014,07,03,10,30,16.90
2014,07,03,10,31,16.90
2014,07,03,10,32,16.90
2014,07,03,10,33,16.80
2014,07,03,10,34,16.80
2014,07,03,10,35,16.80
2014,07,03,10,36,16.70
2014,07,03,10,37,16.70
2014,07,03,10,38,16.70
2014,07,03,10,39,16.70
2014,07,03,10,40,16.70
2014,07,03,10,41,16.70
2014,07,03,10,42,16.80
2014,07,03,10,43,16.80
2014,07,03,10,44,16.80
2014,07,03,10,45,16.80
2014,07,03,10,46,16.90
2014,07,03,10,47,16.90
2014,07,03,10,48,17.00
2014,07,03,10,49,17.00
2014,07,03,10,50,17.10
2014,07,03,10,51,17.10
2014,07,03,10,52,17.20
2014,07,03,10,53,17.20
2014,07,03,10,54,17.20
2014,07,03,10,55,17.30
2014,07,03,10,56,17.30
2014,07,03,10,57,17.30
2014,07,03,10,58,17.30
2014,07,03,10,59,17.30
2014,07,03,11,00,17.30
2014,07,03,11,01,17.30
2014,07,03,11,02,17.30
2014,07,03,11,03,17.30
2014,07,03,11,04,17.30
2014,07,03,11,05,17.20
2014,07,03,11,06,17.20
2014,07,03,11,07,17.20
2014,07,03,11,08,17.20
2014,07,03,11,09,17.20
2014,07,03,11,10,17.10
2014,07,03,11,11,17.10
2014,07,03,11,12,17.10
2014,07,03,11,13,17.10
2014,07,03,11,14,17.00
2014,07,03,11,15,17.00
2014,07,03,11,16,17.10
2014,07,03,11,17,17.10
2014,07,03,11,18,17.10
2014,07,03,11,19,17.10
2014,07,03,11,20,17.10
2014,07,03,11,21,17.10
2014,07,03,11,22,17.10
2014,07,03,11,23,17.10
2014,07,03,11,24,17.10
2014,07,03,11,25,17.20
2014,07,03,11,26,17.20
2014,07,03,11,27,17.30
2014,07,03,11,28,17.30
2014,07,03,11,29,17.40
2014,07,03,11,30,17.50
2014,07,03,11,31,17.60
2014,07,03,11,32,17.80
2014,07,03,11,33,18.00
2014,07,03,11,34,18.20
2014,07,03,11,35,18.40
2014,07,03,11,36,18.60
2014,07,03,11,37,18.70
2014,07,03,11,38,18.70
2014,07,03,11,39,18.60
2014,07,03,11,40,18.50
2014,07,03,11,41,18.40
2014,07,03,11,42,18.30
2014,07,03,11,43,18.20
2014,07,03,11,44,18.10
2014,07,03,11,45,18.10
2014,07,03,11,46,18.00
2014,07,03,11,47,17.90
2014,07,03,11,48,17.90
2014,07,03,11,49,17.90
2014,07,03,11,50,17.90
2014,07,03,11,51,17.90
2014,07,03,11,52,18.00
2014,07,03,11,53,18.10
2014,07,03,11,54,18.30
2014,07,03,11,55,18.50
2014,07,03,11,56,18.70
2014,07,03,11,57,18.90
2014,07,03,11,58,19.10
2014,07,03,11,59,19.30
2014,07,03,12,00,19.50
2014,07,03,12,01,19.70
2014,07,03,12,02,19.90
2014,07,03,12,03,20.10
2014,07,03,12,04,20.20
2014,07,03,12,05,20.20
2014,07,03,12,06,20.20
2014,07,03,12,07,20.20
2014,07,03,12,08,20.10
2014,07,03,12,09,20.00
2014,07,03,12,10,19.90
2014,07,03,12,11,19.80
2014,07,03,12,12,19.60
2014,07,03,12,13,19.50
2014,07,03,12,14,19.40
2014,07,03,12,15,19.30
2014,07,03,12,16,19.20
2014,07,03,12,17,19.10
2014,07,03,12,18,19.00
2014,07,03,12,19,18.90
2014,07,03,12,20,18.80
2014,07,03,12,21,18.70
2014,07,03,12,22,18.60
2014,07,03,12,23,18.50
2014,07,03,12,24,18.50
2014,07,03,12,25,18.40
2014,07,03,12,26,18.40
2014,07,03,12,27,18.50
2014,07,03,12,28,18.50
2014,07,03,12,29,18.50
2014,07,03,12,30,18.60
2014,07,03,12,31,18.70
2014,07,03,12,32,18.70
2014,07,03,12,33,18.70
2014,07,03,12,34,18.80
2014,07,03,12,35,18.80
2014,07,03,12,36,18.70
2014,07,03,12,37,18.70
2014,07,03,12,38,18.60
2014,07,03,12,39,18.60
2014,07,03,12,40,18.50
2014,07,03,12,41,18.50
2014,07,03,12,42,18.40
2014,07,03,12,43,18.40
2014,07,03,12,44,18.40
2014,07,03,12,45,18.40
2014,07,03,12,46,18.40
2014,07,03,12,47,18.40
2014,07,03,12,48,18.40
2014,07,03,12,49,18.40
2014,07,03,12,50,18.40
2014,07,03,12,51,18.40
2014,07,03,12,52,18.40
2014,07,03,12,53,18.40
2014,07,03,12,54,18.40
2014,07,03,12,55,18.40
2014,07,03,12,56,18.50
2014,07,03,12,57,18.50
2014,07,03,12,58,18.60
2014,07,03,12,59,18.60
2014,07,03,13,00,18.60
2014,07,03,13,01,18.60
2014,07,03,13,02,18.60
2014,07,03,13,03,18.60
2014,07,03,13,04,18.60
2014,07,03,13,05,18.60
2014,07,03,13,06,18.60
2014,07,03,13,07,18.50
2014,07,03,13,08,18.50
2014,07,03,13,09,18.40
2014,07,03,13,10,18.40
2014,07,03,13,11,18.40
2014,07,03,13,12,18.30
2014,07,03,13,13,18.30
2014,07,03,13,14,18.20
2014,07,03,13,15,18.10
2014,07,03,13,16,18.10
2014,07,03,13,17,18.10
2014,07,03,13,18,18.10
2014,07,03,13,19,18.10
2014,07,03,13,20,18.10
2014,07,03,13,21,18.10
2014,07,03,13,22,18.20
2014,07,03,13,23,18.20
2014,07,03,13,24,18.20
2014,07,03,13,25,18.20
2014,07,03,13,26,18.20
2014,07,03,13,27,18.20
2014,07,03,13,28,18.20
2014,07,03,13,29,18.20
2014,07,03,13,30,18.20
2014,07,03,13,31,18.20
2014,07,03,13,32,18.30
2014,07,03,13,33,18.30
2014,07,03,13,34,18.30
2014,07,03,13,35,18.30
2014,07,03,13,36,18.20
2014,07,03,13,37,18.20
2014,07,03,13,38,18.20
2014,07,03,13,39,18.20
2014,07,03,13,40,18.20
2014,07,03,13,41,18.20
2014,07,03,13,42,18.20
2014,07,03,13,43,18.20
2014,07,03,13,44,18.30
2014,07,03,13,45,18.30
2014,07,03,13,46,18.40
2014,07,03,13,47,18.40
2014,07,03,13,48,18.50
2014,07,03,13,49,18.50
2014,07,03,13,50,18.60
2014,07,03,13,51,18.60
2014,07,03,13,52,18.60
2014,07,03,13,53,18.60
2014,07,03,13,54,18.60
2014,07,03,13,55,18.60
2014,07,03,13,56,18.60
2014,07,03,13,57,18.70
2014,07,03,13,58,18.80
2014,07,03,13,59,18.90
2014,07,03,14,00,19.10
2014,07,03,14,01,19.30
2014,07,03,14,02,19.50
2014,07,03,14,03,19.60
2014,07,03,14,04,19.80
2014,07,03,14,05,19.90
2014,07,03,14,06,19.90
2014,07,03,14,07,19.90
2014,07,03,14,08,19.90
2014,07,03,14,09,19.90
2014,07,03,14,10,19.90
2014,07,03,14,11,19.90
2014,07,03,14,12,19.90
2014,07,03,14,13,19.90
2014,07,03,14,14,19.90
2014,07,03,14,15,19.80
2014,07,03,14,16,19.70
2014,07,03,14,17,19.60
2014,07,03,14,18,19.60
2014,07,03,14,19,19.50
2014,07,03,14,20,19.50
2014,07,03,14,21,19.40
2014,07,03,14,22,19.40
2014,07,03,14,23,19.30
2014,07,03,14,24,19.30
2014,07,03,14,25,19.30
2014,07,03,14,26,19.40
2014,07,03,14,27,19.50
2014,07,03,14,28,19.70
2014,07,03,14,29,19.90
2014,07,03,14,30,19.90
2014,07,03,14,31,20.00
2014,07,03,14,32,19.90
2014,07,03,14,33,19.90
2014,07,03,14,34,19.90
2014,07,03,14,35,19.90
2014,07,03,14,36,19.90
2014,07,03,14,37,19.90
2014,07,03,14,38,19.90
2014,07,03,14,39,19.90
2014,07,03,14,40,19.90
2014,07,03,14,41,19.90
2014,07,03,14,42,19.90
2014,07,03,14,43,19.90
2014,07,03,14,44,19.90
2014,07,03,14,45,19.90
2014,07,03,14,46,20.00
2014,07,03,14,47,20.00
2014,07,03,14,48,19.90
2014,07,03,14,49,19.90
2014,07,03,14,50,19.90
2014,07,03,14,51,19.90
2014,07,03,14,52,19.80
2014,07,03,14,53,19.70
2014,07,03,14,54,19.70
2014,07,03,14,55,19.50
2014,07,03,14,56,19.40
2014,07,03,14,57,19.30
2014,07,03,14,58,19.30
2014,07,03,14,59,19.30
2014,07,03,15,00,19.30
2014,07,03,15,01,19.30
2014,07,03,15,02,19.30
2014,07,03,15,03,19.40
2014,07,03,15,04,19.40
2014,07,03,15,05,19.40
2014,07,03,15,06,19.40
2014,07,03,15,07,19.30
2014,07,03,15,08,19.30
2014,07,03,15,09,19.30
2014,07,03,15,10,19.30
2014,07,03,15,11,19.30
2014,07,03,15,12,19.30
2014,07,03,15,13,19.40
2014,07,03,15,14,19.40
2014,07,03,15,15,19.40
2014,07,03,15,16,19.40
2014,07,03,15,17,19.30
2014,07,03,15,18,19.30
2014,07,03,15,19,19.40
2014,07,03,15,20,19.40
2014,07,03,15,21,19.40
2014,07,03,15,22,19.40
2014,07,03,15,23,19.40
2014,07,03,15,24,19.40
2014,07,03,15,25,19.50
2014,07,03,15,26,19.70
2014,07,03,15,27,19.80
2014,07,03,15,28,19.90
2014,07,03,15,29,20.00
2014,07,03,15,30,20.10
2014,07,03,15,31,20.20
2014,07,03,15,32,20.20
2014,07,03,15,33,20.40
2014,07,03,15,34,20.40
2014,07,03,15,35,20.40
2014,07,03,15,36,20.40
2014,07,03,15,37,20.30
2014,07,03,15,38,20.30
2014,07,03,15,39,20.20
2014,07,03,15,40,20.10
2014,07,03,15,41,20.10
2014,07,03,15,42,20.00
2014,07,03,15,43,20.00
2014,07,03,15,44,19.90
2014,07,03,15,45,19.90
2014,07,03,15,46,19.80
2014,07,03,15,47,19.80
2014,07,03,15,48,19.80
2014,07,03,15,49,19.80
2014,07,03,15,50,19.90
2014,07,03,15,51,19.90
2014,07,03,15,52,19.90
2014,07,03,15,53,19.90
2014,07,03,15,54,19.90
2014,07,03,15,55,19.90
2014,07,03,15,56,19.90
2014,07,03,15,57,19.90
2014,07,03,15,58,19.80
2014,07,03,15,59,19.80
2014,07,03,16,00,19.70
2014,07,03,16,01,19.70
2014,07,03,16,02,19.60
2014,07,03,16,03,19.60
2014,07,03,16,04,19.60
2014,07,03,16,05,19.60
2014,07,03,16,06,19.60
2014,07,03,16,07,19.60
2014,07,03,16,08,19.60
2014,07,03,16,09,19.70
2014,07,03,16,10,19.70
2014,07,03,16,11,19.70
2014,07,03,16,12,19.70
2014,07,03,16,13,19.70
2014,07,03,16,14,19.70
2014,07,03,16,15,19.70
2014,07,03,16,16,19.70
2014,07,03,16,17,19.80
2014,07,03,16,18,19.80
2014,07,03,16,19,19.80
2014,07,03,16,20,19.80
2014,07,03,16,21,19.80
2014,07,03,16,22,19.80
2014,07,03,16,23,19.80
2014,07,03,16,24,19.80
2014,07,03,16,25,19.80
2014,07,03,16,26,19.70
2014,07,03,16,27,19.70
2014,07,03,16,28,19.70
2014,07,03,16,29,19.70
2014,07,03,16,30,19.70
2014,07,03,16,31,19.60
2014,07,03,16,32,19.60
2014,07,03,16,33,19.60
2014,07,03,16,34,19.50
2014,07,03,16,35,19.50
2014,07,03,16,36,19.50
2014,07,03,16,37,19.50
2014,07,03,16,38,19.60
2014,07,03,16,39,19.50
2014,07,03,16,40,19.50
2014,07,03,16,41,19.50
2014,07,03,16,42,19.50
2014,07,03,16,43,19.50
2014,07,03,16,44,19.50
2014,07,03,16,45,19.50
2014,07,03,16,46,19.50
2014,07,03,16,47,19.60
2014,07,03,16,48,19.60
2014,07,03,16,49,19.60
2014,07,03,16,50,19.70
2014,07,03,16,51,19.70
2014,07,03,16,52,19.70
2014,07,03,16,53,19.70
2014,07,03,16,54,19.70
2014,07,03,16,55,19.70
2014,07,03,16,56,19.70
2014,07,03,16,57,19.70
2014,07,03,16,58,19.70
2014,07,03,16,59,19.70
2014,07,03,17,00,19.70
2014,07,03,17,01,19.70
2014,07,03,17,02,19.70
2014,07,03,17,03,19.70
2014,07,03,17,04,19.80
2014,07,03,17,05,19.80
2014,07,03,17,06,19.70
2014,07,03,17,07,19.70
2014,07,03,17,08,19.60
2014,07,03,17,09,19.60
2014,07,03,17,10,19.60
2014,07,03,17,11,19.50
2014,07,03,17,12,19.50
2014,07,03,17,13,19.40
2014,07,03,17,14,19.40
2014,07,03,17,15,19.40
2014,07,03,17,16,19.40
2014,07,03,17,17,19.30
2014,07,03,17,18,19.30
2014,07,03,17,19,19.30